Kodiak, AK

6:10 AM AKDT on May 30, 2017 (GMT -0800)
Kodiak

Weather History for PADQ - October, 2012

Change the Weather History Date:

Friday, October 5, 2012

  Actual Average Record
Temperature  
Mean Temperature 47 °F 44 °F  
Max Temperature 48 °F 50 °F 61 °F (1983)
Min Temperature 45 °F 37 °F 28 °F (1967)
Degree Days  
Heating Degree Days 18 22  
Month to date heating degree days 93 105  
Since 1 July heating degree days 1323 1206  
Cooling Degree Days 0 0  
Month to date cooling degree days 0 0  
Year to date cooling degree days 0 1  
Moisture  
Dew Point 45 °F    
Average Humidity 0    
Maximum Humidity 0    
Minimum Humidity 0    
Precipitation  
Precipitation 0.38 in 0.28 in 1.93 in (2003)
Month to date precipitation 1.81 1.41  
Year to date precipitation 44.86 55.55  
Snow  
Snow 0.00 in 0.00 in - ()
Month to date snowfall 0.0 0.0  
Since 1 July snowfall T 0.0  
Since 1 September snowfall 0.0 0.0  
Snow Depth 0.00 in    
Sea Level Pressure  
Sea Level Pressure 30.16 in    
Wind  
Wind Speed 2 mph (South)    
Max Wind Speed 9 mph    
Max Gust Speed 9 mph    
Visibility 8 miles    
Events Rain    
T = Trace of Precipitation, MM = Missing Value Source: NWS Daily Summary

Daily Weather History Graph

Daily Weather History Graph

Search for Another Location

Airport or City:

Trip Planner

Search our weather history database for the weather conditions in past years. The results will help you decide how hot, cold, wet, or windy it might be!

Date:

Astronomy

Oct. 05, 2012 Rise Set
Actual Time 8:24 AM AKDT 7:30 PM AKDT
Civil Twilight 7:45 AM AKDT 8:09 PM AKDT
Nautical Twilight 7:00 AM AKDT 8:54 PM AKDT
Astronomical Twilight 6:13 AM AKDT 9:41 PM AKDT
Moon 10:00 PM AKDT (10/5) 2:43 PM AKDT (10/5)
Length of Visible Light 12h 24m
Length of Day
11h 06m
Waning Gibbous, 73% of the Moon is Illuminated
Oct 5
Waning Gibbous
Oct 7
Last Quarter
Oct 15
New
Oct 21
First Quarter
Oct 29
Full

Hourly Weather History & Observations

Time (AKDT) Temp. Windchill Dew Point Humidity Pressure Visibility Wind Dir Wind Speed Gust Speed Precip Events Conditions
12:53 AM 46.0 °F 43.1 °F 39.9 °F 79% 30.19 in 10.0 mi South 5.8 mph - N/A   Overcast
1:53 AM 46.9 °F - 39.9 °F 77% 30.20 in 10.0 mi Calm Calm - N/A   Overcast
2:53 AM 46.0 °F 43.1 °F 41.0 °F 83% 30.20 in 10.0 mi South 5.8 mph - N/A   Overcast
3:53 AM 46.9 °F - 41.0 °F 80% 30.20 in 10.0 mi South 3.5 mph - N/A   Overcast
4:53 AM 45.0 °F - 42.1 °F 90% 30.20 in 10.0 mi Calm Calm - N/A   Overcast
5:53 AM 46.0 °F 44.8 °F 42.1 °F 86% 30.19 in 10.0 mi SE 3.5 mph - N/A   Overcast
6:53 AM 46.9 °F - 43.0 °F 86% 30.18 in 10.0 mi South 4.6 mph - 0.00 in Rain Light Rain
7:53 AM 46.9 °F - 44.1 °F 90% 30.18 in 10.0 mi Calm Calm - 0.01 in Rain Light Rain
8:53 AM 46.9 °F - 45.0 °F 93% 30.18 in 7.0 mi Calm Calm - 0.01 in Rain Light Rain
9:53 AM 46.0 °F - 45.0 °F 96% 30.17 in 4.0 mi Calm Calm - 0.05 in Rain Light Rain
10:53 AM 46.0 °F 44.8 °F 44.1 °F 93% 30.17 in 3.0 mi WSW 3.5 mph - 0.06 in Rain Light Rain
11:53 AM 46.0 °F 43.9 °F 45.0 °F 96% 30.15 in 3.0 mi WSW 4.6 mph - 0.08 in Rain Rain
12:53 PM 46.0 °F 43.9 °F 45.0 °F 96% 30.13 in 3.0 mi West 4.6 mph - 0.08 in Rain Light Rain
1:53 PM 46.9 °F - 46.0 °F 97% 30.13 in 3.0 mi South 3.5 mph - 0.05 in Rain Light Rain
2:53 PM 48.0 °F - 46.9 °F 96% 30.12 in 5.0 mi Calm Calm - 0.04 in Rain Light Rain
3:28 PM 48.2 °F - 46.4 °F 93% 30.12 in 6.0 mi SE 3.5 mph - 0.00 in Rain Light Rain
3:53 PM 48.9 °F - 46.9 °F 93% 30.12 in 10.0 mi Calm Calm - 0.01 in   Mostly Cloudy
4:53 PM 48.9 °F - 46.9 °F 93% 30.10 in 10.0 mi East 4.6 mph - N/A   Overcast
5:53 PM 48.9 °F - 46.0 °F 90% 30.12 in 10.0 mi Calm Calm - N/A   Overcast
6:45 PM 48.2 °F - 46.4 °F 93% 30.13 in 10.0 mi Calm Calm - N/A   Overcast
6:53 PM 48.0 °F - 46.9 °F 96% 30.13 in 10.0 mi Calm Calm - N/A   Overcast
7:53 PM 48.0 °F - 46.9 °F 96% 30.14 in 10.0 mi Calm Calm - 0.00 in Rain Light Rain
8:53 PM 48.0 °F - 46.0 °F 93% 30.14 in 10.0 mi Calm Calm - 0.01 in Rain Light Rain
9:53 PM 48.0 °F - 46.0 °F 93% 30.14 in 10.0 mi Calm Calm - 0.00 in Rain Light Rain
10:53 PM 46.9 °F - 46.9 °F 100% 30.15 in 4.0 mi Calm Calm - 0.01 in Rain Light Rain
11:53 PM 48.0 °F - 46.9 °F 96% 30.16 in 5.0 mi Calm Calm - 0.09 in Rain Light Rain